Time,TemperatureF,DewpointF,PressureIn,WindDirection,WindDirectionDegrees,WindSpeedMPH,WindSpeedGustMPH,Humidity,HourlyPrecipIn,Conditions,Clouds,dailyrainin,SoftwareType,DateUTC
2013-06-28 00:10:00,61.0,55.0,-100.00,NW,320,6.0,10.0,80,-99.99,,,-99.99,,2013-06-28 07:10:00,
2013-06-28 02:10:00,60.0,55.0,-100.00,WNW,300,5.0,9.0,83,-99.99,,,-99.99,,2013-06-28 09:10:00,
2013-06-28 02:11:00,60.0,54.0,-100.00,NW,320,6.0,10.0,80,-99.99,,,-99.99,,2013-06-28 09:11:00,
2013-06-28 04:11:00,60.0,54.0,-100.00,WNW,295,6.0,9.0,80,-99.99,,,-99.99,,2013-06-28 11:11:00,
2013-06-28 05:10:00,58.0,53.0,-100.00,NW,315,3.0,8.0,83,-99.99,,,-99.99,,2013-06-28 12:10:00,
2013-06-28 07:10:00,61.0,55.0,-100.00,North,360,2.0,6.0,80,-99.99,,,-99.99,,2013-06-28 14:10:00,
2013-06-28 07:11:00,58.0,54.0,-100.00,NW,320,3.0,5.0,86,-99.99,,,-99.99,,2013-06-28 14:11:00,
2013-06-28 09:11:00,65.0,56.0,-100.00,North,360,2.0,5.0,72,-99.99,,,-99.99,,2013-06-28 16:11:00,
2013-06-28 09:20:00,71.0,56.0,-100.00,North,5,1.0,3.0,59,-99.99,,,-99.99,,2013-06-28 16:20:00,
2013-06-28 10:10:00,75.0,55.0,-100.00,North,5,1.0,3.0,49,-99.99,,,-99.99,,2013-06-28 17:10:00,
2013-06-28 10:11:00,71.0,56.0,-100.00,North,5,1.0,3.0,59,-99.99,,,-99.99,,2013-06-28 17:11:00,
2013-06-28 12:11:00,76.0,55.0,-100.00,SE,130,3.0,6.0,48,-99.99,,,-99.99,,2013-06-28 19:11:00,
2013-06-28 13:10:00,83.0,56.0,-100.00,SE,140,6.0,12.0,39,-99.99,,,-99.99,,2013-06-28 20:10:00,
2013-06-28 15:01:00,86.0,57.0,-100.00,SE,135,3.0,9.0,37,-99.99,,,-99.99,,2013-06-28 22:01:00,
2013-06-28 15:10:00,87.0,57.0,-100.00,SE,125,3.0,10.0,36,-99.99,,,-99.99,,2013-06-28 22:10:00,
2013-06-28 15:11:00,86.0,57.0,-100.00,SE,135,3.0,9.0,37,-99.99,,,-99.99,,2013-06-28 22:11:00,
2013-06-28 17:02:00,89.0,58.0,-100.00,SSE,150,6.0,7.0,35,-99.99,,,-99.99,,2013-06-29 00:02:00,
2013-06-28 17:11:00,89.0,58.0,-100.00,SSE,150,6.0,7.0,35,-99.99,,,-99.99,,2013-06-29 00:11:00,
2013-06-28 18:10:00,93.0,59.0,-100.00,SW,225,1.0,2.0,32,-99.99,,,-99.99,,2013-06-29 01:10:00,
2013-06-28 20:10:00,82.0,58.0,-100.00,WNW,300,5.0,8.0,44,-99.99,,,-99.99,,2013-06-29 03:10:00,
2013-06-28 20:11:00,88.0,59.0,-100.00,WNW,285,3.0,6.0,37,-99.99,,,-99.99,,2013-06-29 03:11:00,
2013-06-28 21:01:00,82.0,58.0,-100.00,WNW,300,5.0,8.0,44,-99.99,,,-99.99,,2013-06-29 04:01:00,
2013-06-28 22:10:00,74.0,60.0,-100.00,NNW,340,5.0,12.0,61,-99.99,,,-99.99,,2013-06-29 05:10:00,
2013-06-28 22:20:00,73.0,60.0,-100.00,WNW,295,7.0,10.0,63,-99.99,,,-99.99,,2013-06-29 05:20:00,
2013-06-28 23:10:00,72.0,60.0,-100.00,WNW,300,7.0,9.0,65,-99.99,,,-99.99,,2013-06-29 06:10:00,
2013-06-28 23:12:00,73.0,60.0,-100.00,WNW,295,7.0,10.0,63,-99.99,,,-99.99,,2013-06-29 06:12:00,